SHT21B EGJB-EGLL

Flight info

Callsign SHT21B
Flight time N/A
Altitude 19000
Route ORIST L982 ROXOG
Aircraft A319/M-SDE3FGHIRWY/LB1

Departure

Time 2026-04-22 17:33
Airport Guernsey Airport (EGJB)

Arrival

Time N/A
Airport London Heathrow Airport (EGLL)
Time Latitude Longitude Altitude Speed Heading
2026-04-22 17:23 49.43284 -2.59748 345 ft 0 kts 178°
2026-04-22 17:27 49.43300 -2.59749 335 ft 3 kts 178°
2026-04-22 17:27 49.43319 -2.59750 359 ft 3 kts 178°
2026-04-22 17:27 49.43338 -2.59751 344 ft 2 kts 179°
2026-04-22 17:28 49.43353 -2.59741 354 ft 0 kts 262°
2026-04-22 17:28 49.43353 -2.59742 354 ft 0 kts 262°
2026-04-22 17:30 49.43349 -2.59773 351 ft 6 kts 261°
2026-04-22 17:30 49.43345 -2.59882 344 ft 15 kts 267°
2026-04-22 17:30 49.43339 -2.60078 345 ft 22 kts 267°
2026-04-22 17:30 49.43332 -2.60340 336 ft 27 kts 267°
2026-04-22 17:31 49.43333 -2.60658 329 ft 32 kts 279°
2026-04-22 17:31 49.43365 -2.61009 321 ft 30 kts 268°
2026-04-22 17:31 49.43369 -2.61270 314 ft 18 kts 299°
2026-04-22 17:31 49.43460 -2.61336 312 ft 11 kts 52°
2026-04-22 17:32 49.43467 -2.61289 314 ft 0 kts 90°
2026-04-22 17:32 49.43467 -2.61237 315 ft 23 kts 88°
2026-04-22 17:32 49.43489 -2.60511 331 ft 110 kts 87°
2026-04-22 17:32 49.43529 -2.59069 740 ft 139 kts 85°
2026-04-22 17:33 49.43554 -2.58106 1387 ft 133 kts 89°
2026-04-22 17:33 49.43606 -2.56089 2227 ft 154 kts 91°
2026-04-22 17:33 49.43650 -2.54351 2486 ft 177 kts 90°
2026-04-22 17:33 49.43704 -2.52371 3022 ft 190 kts 90°
2026-04-22 17:34 49.43943 -2.50341 3715 ft 202 kts 69°
2026-04-22 17:34 49.44926 -2.48708 4391 ft 223 kts 33°
2026-04-22 17:34 49.46461 -2.47957 5047 ft 236 kts 17°
2026-04-22 17:34 49.48075 -2.47364 5769 ft 240 kts 18°
2026-04-22 17:35 49.49781 -2.46735 6171 ft 264 kts 18°
2026-04-22 17:35 49.51633 -2.46041 6735 ft 279 kts 19°
2026-04-22 17:35 49.53539 -2.45327 7537 ft 283 kts 17°
2026-04-22 17:35 49.55475 -2.44599 8015 ft 288 kts 16°
2026-04-22 17:36 49.57423 -2.43866 8164 ft 288 kts 17°
2026-04-22 17:36 49.59380 -2.43128 8776 ft 290 kts 16°
2026-04-22 17:36 49.61343 -2.42383 9678 ft 292 kts 15°
2026-04-22 17:36 49.63327 -2.41628 10475 ft 295 kts 15°
2026-04-22 17:37 49.65330 -2.40867 11212 ft 298 kts 14°
2026-04-22 17:37 49.67357 -2.40092 11912 ft 303 kts 14°
2026-04-22 17:37 49.69347 -2.38993 12597 ft 306 kts 27°
2026-04-22 17:37 49.71144 -2.37168 13080 ft 318 kts 41°